彩虹 23星 (RADUGA 23)

导读 | 星芒AI

RADUGA 23 是俄罗斯研制的一颗军用通信卫星,属于“彩虹”(Raduga)系列。该卫星主要用于支持俄军的战术和战略级通信需求,具备抗干扰和加密传输能力,以确保在复杂电磁环境下的通信安全。它由“列舍特涅夫”信息卫星系统公司制造,由“联盟-2.1b”运载火箭发射入轨。RADUGA 23 的部署增强了俄罗斯在军事指挥、控制和情报传输方面的能力,是其空间信息基础设施的重要组成部分。

基本信息
目录编号:
19928
目录名称:
RADUGA 23
国际标识:
1989-030A
轨道中心:
EARTH
卫星名称:
彩虹 23星
卫星全名:
彩虹 23星 (RADUGA 23)
卫星状态:
在轨 (已飞行13332 天)
发射日期:
1989-04-14 UTC
国别 :
俄罗斯(独联体) (CIS)
星等 :
--
轨道信息
数据来源 国际轨道数据 AOE轨道数据
星历时间 2025-10-13T21:54:37+0800
23小时前
查看轨道信息
2025-10-11T00:00:00+0800
3天前
查看轨道信息
半长轴 42146.068km 42145.508km
偏心率 0.002173 0.0021543
轨道倾角 12.095° 12.098°
近地点辐角 204.396° 204.533°
升交点赤经 333.617° 333.640°
平近点角 157.340° 184.956°
近地点 35676.349km 35676.578km
远地点 35859.517km 35858.168km
周期 1435.143分钟 1435.115分钟
每日圈数 1.003384 1.003404
详细信息
平衡模式:
三轴稳定
覆盖范围:
全球
运营商:
俄罗斯国家航天集团
运营商所在国:
俄罗斯
制造商(研发单位):
普里克拉德诺伊·梅哈尼基设计局
制造商所在国:
俄罗斯联邦
使用方式:
暂无
卫星简介
彩虹卫星(Raduga, Gran)是苏联用于军事和通信目的的一系列地球静止通信卫星。彩虹卫星旨在支持军事通信、Orbita地面电视网络,并在整个东半球(极地地区除外)提供电话和电报通信。该卫星已退役。
2D轨道图
3D轨道图
轨道高度分析图
轨道倾角分析图
轨道综合分析图
查看轨道综合分析图